GFSMA_850_temp_159.txt.gz
Temp
19 19 19 19 20 20 20 20 20 21 21 21 21 21 22 22 22 21 21 21 21 21 20 20 19 18 18 17 17 17 17 17 17 17 17 18 18 18 18 17 18 18 18
19 19 19 19 19 20 20 20 21 21 21 21 21 21 22 22 21 21 21 21 21 20 20 20 20 19 18 18 18 18 18 18 18 18 18 18 18 18 17 18 18 18 18
20 19 20 20 20 20 20 20 20 21 22 22 22 21 22 22 22 22 21 21 21 21 20 20 20 19 19 19 19 19 19 18 19 18 18 18 18 18 17 18 18 18 18
19 20 20 20 20 20 20 20 20 21 21 22 22 22 22 22 22 22 21 21 21 21 21 21 21 20 20 19 19 19 19 18 19 18 18 18 18 18 18 18 18 18 18
19 19 20 19 20 20 20 20 20 20 22 22 22 22 22 22 22 22 21 22 21 21 22 22 21 21 20 20 20 20 19 19 19 18 18 18 18 18 18 18 19 19 18
19 19 19 19 20 20 20 21 20 21 21 22 22 21 22 22 22 22 22 22 22 22 21 22 21 21 20 20 20 20 20 19 19 18 18 18 18 18 18 18 19 19 19
19 19 19 20 20 20 20 20 21 21 20 21 22 22 22 22 22 22 22 22 22 22 22 22 22 21 20 20 20 20 20 19 19 19 18 18 18 18 18 18 18 18 18
20 20 19 19 20 20 20 20 20 21 21 21 21 22 22 22 22 22 22 22 22 22 22 22 22 21 21 20 20 20 20 19 19 19 19 18 18 18 18 18 18 18 18
20 20 20 20 20 19 20 20 20 20 21 20 21 21 21 21 21 22 22 22 22 22 22 22 22 21 21 20 20 20 19 19 19 19 19 18 18 18 18 18 18 18 18
19 19 20 20 20 19 20 20 20 20 20 20 20 20 20 20 20 21 22 22 22 22 23 23 22 22 21 20 20 19 19 19 19 19 18 18 18 18 18 17 17 17 17
19 19 19 19 20 20 20 20 19 20 20 20 20 21 20 20 20 20 21 22 21 22 22 22 22 22 21 20 20 19 19 19 19 18 18 18 18 18 18 18 17 17 17
20 20 19 19 19 19 19 19 20 19 20 20 20 20 20 20 20 20 20 21 20 21 22 22 22 22 21 20 19 19 19 19 18 18 18 18 18 18 17 17 17 17 17
20 20 20 19 19 19 19 19 19 19 20 20 20 20 20 20 20 20 20 20 20 20 21 21 21 21 20 20 20 20 19 19 18 18 18 18 18 17 17 17 17 17 17
20 20 20 19 19 19 19 19 18 19 19 19 19 19 19 20 20 19 19 20 20 20 20 21 21 21 20 20 19 19 19 19 18 18 18 18 18 17 17 17 17 17 17
19 20 20 19 19 19 19 19 19 19 19 19 19 19 19 19 19 19 19 19 19 19 20 20 20 20 20 20 19 19 19 19 19 18 18 18 17 17 17 16 16 16 16
19 19 19 19 19 19 19 19 19 19 19 19 19 19 19 19 19 19 19 19 19 19 19 20 20 20 20 20 19 19 19 18 18 18 17 17 17 16 16 16 16 16 16
19 19 19 19 19 19 19 19 19 19 18 19 19 19 19 19 19 19 19 18 19 19 19 19 20 20 20 19 19 19 18 18 18 18 17 16 16 16 16 16 16 15 15
19 19 19 19 19 19 19 19 19 19 19 19 19 18 18 19 19 19 19 19 19 19 19 19 20 19 19 19 19 18 18 18 18 17 16 16 16 16 15 15 15 15 14
19 19 18 18 18 18 19 19 19 19 19 19 19 19 19 19 19 19 19 19 19 19 19 19 19 19 19 19 19 19 18 18 18 17 15 16 16 15 15 14 14 14 14
19 18 18 18 18 18 18 18 19 19 19 19 19 18 19 19 19 19 19 19 19 19 19 18 19 18 18 18 18 18 18 18 17 15 15 16 15 15 14 14 13 13 13
19 19 19 19 19 19 18 19 18 18 18 19 19 19 19 19 19 18 18 19 18 18 18 18 18 18 18 18 18 19 18 17 16 15 15 15 15 14 14 13 13 13 13
18 18 20 20 20 18 19 19 18 18 18 18 18 19 19 19 19 19 19 18 18 18 18 18 18 18 18 18 18 18 18 17 15 16 15 15 14 14 13 13 13 13 13
19 18 18 18 18 18 18 19 19 18 18 18 18 19 19 19 19 18 18 19 18 18 18 18 18 18 18 18 18 18 17 17 17 16 15 14 14 13 13 13 12 12 13
19 18 17 17 16 17 17 18 17 18 18 18 18 18 19 19 19 19 19 18 18 18 18 18 18 18 18 18 17 18 17 17 15 15 15 14 13 13 13 12 12 12 12
18 18 18 18 17 17 17 18 18 18 18 18 18 19 18 18 19 19 19 18 18 18 18 18 18 18 18 18 17 17 17 17 15 15 14 14 13 13 12 12 12 12 11
18 19 19 19 19 20 19 19 18 18 18 18 18 18 18 19 19 19 18 19 18 18 18 18 18 18 18 17 17 17 16 16 15 14 14 13 13 12 12 12 12 12 11

GFSMA_850_temp_162.txt.gz
Temp
19 19 19 19 19 19 20 20 20 20 20 21 21 21 22 22 21 21 21 21 20 20 20 19 19 18 18 18 17 17 17 17 17 17 17 17 17 17 17 17 17 17 17
19 19 19 19 19 19 20 20 20 21 21 21 21 21 21 22 21 21 21 21 20 20 20 20 19 19 19 18 18 18 18 18 17 17 17 17 17 17 17 17 18 17 17
19 19 19 19 20 20 20 20 21 21 21 22 22 22 22 22 22 21 21 21 21 21 20 20 20 19 19 19 19 19 19 18 18 18 17 17 17 18 18 18 18 18 18
19 19 20 20 20 19 20 20 20 21 21 22 22 22 22 22 22 21 21 21 21 21 21 21 20 20 19 19 19 19 19 19 18 18 18 18 18 17 18 18 18 18 18
19 19 19 20 20 20 20 20 20 21 21 21 22 22 22 22 22 22 21 21 21 21 21 21 21 20 20 19 19 19 19 19 18 18 18 18 18 18 18 18 18 18 18
19 19 19 20 20 19 20 20 20 20 20 21 21 21 21 21 21 22 21 21 21 21 21 21 21 21 20 20 19 19 19 19 19 18 18 18 18 18 18 18 18 18 18
19 19 19 19 19 19 20 20 20 20 20 21 21 21 22 21 22 22 21 22 21 21 21 21 21 21 21 20 20 19 19 19 19 18 18 18 18 18 18 18 18 18 18
19 19 19 19 19 19 19 20 20 20 21 21 21 21 22 22 22 21 22 21 21 21 21 21 21 21 21 20 20 20 19 19 19 18 18 18 18 18 18 18 18 18 18
19 19 19 19 19 19 20 20 19 20 21 20 20 20 21 21 21 21 21 21 22 22 22 22 22 22 21 21 20 20 19 19 18 18 18 18 17 17 17 17 17 17 17
19 19 19 20 19 19 19 19 20 19 20 20 20 20 20 20 20 21 21 21 22 22 22 23 22 22 21 20 20 20 19 19 18 18 18 18 17 17 17 17 17 17 17
19 19 19 19 19 19 19 19 19 19 19 19 20 20 20 20 20 20 21 21 21 22 22 22 22 22 21 20 20 20 19 19 18 18 18 18 17 17 17 17 17 17 17
19 19 19 19 18 18 19 19 19 19 19 19 19 19 19 20 20 20 20 20 20 21 21 21 22 21 21 20 20 20 19 19 18 18 18 18 18 18 17 17 17 17 17
20 20 19 19 19 19 18 18 18 18 19 19 19 19 19 19 19 19 20 20 20 20 21 21 21 21 20 20 20 19 19 19 18 18 18 18 18 18 17 17 17 16 16
20 20 19 19 19 19 19 18 18 18 18 18 18 18 18 19 19 19 19 19 19 20 20 20 20 20 20 20 19 19 19 19 18 18 18 18 18 17 17 17 17 16 16
19 19 19 19 19 19 19 18 18 18 18 18 18 18 18 19 18 19 18 19 19 19 19 20 20 20 20 20 20 19 19 19 19 18 18 18 18 17 17 17 16 16 16
19 19 19 19 19 19 19 19 19 19 18 18 18 18 18 18 18 18 18 18 18 18 18 19 20 20 20 19 19 19 19 19 19 18 18 17 17 17 16 16 16 15 15
19 19 19 19 19 19 19 19 19 19 19 18 18 18 18 18 18 18 18 18 18 18 18 19 19 19 19 19 19 19 19 18 18 18 16 16 16 16 16 15 15 15 15
19 19 19 19 19 19 19 18 19 19 19 19 19 18 18 18 18 18 18 18 18 18 18 18 19 19 19 19 19 19 18 18 18 17 16 15 16 16 15 15 15 15 14
19 19 19 19 19 19 19 19 18 18 18 18 18 19 19 18 18 18 18 18 18 18 18 18 18 19 19 18 18 18 18 17 17 17 16 15 16 16 15 15 14 14 13
20 19 20 20 19 19 19 19 19 19 18 19 19 18 18 18 18 18 18 18 18 18 18 17 18 18 18 18 18 18 18 18 17 16 15 16 16 15 15 14 14 13 13
19 19 20 19 19 19 19 19 18 18 18 19 19 19 18 18 18 18 18 18 18 18 18 17 17 17 17 18 18 18 18 17 16 16 15 15 15 14 14 13 13 13 13
19 19 19 19 19 19 19 18 18 18 18 17 18 19 19 18 18 18 18 18 18 18 18 18 18 17 18 18 17 18 17 16 15 15 15 15 14 13 13 13 13 14 14
19 19 19 19 20 19 19 19 18 17 17 18 18 19 19 19 19 18 18 18 18 18 18 18 18 18 18 18 18 17 18 18 18 17 15 14 14 13 12 12 13 13 13
19 19 19 19 20 20 19 19 18 18 17 17 18 18 19 19 19 18 18 18 18 18 18 18 18 18 18 18 18 18 17 17 16 15 15 14 13 12 12 12 12 12 12
19 19 19 19 19 19 19 19 19 19 19 19 19 19 18 19 19 18 18 18 18 18 18 18 18 18 18 18 18 17 17 17 15 15 15 14 12 11 11 11 12 11 11
19 19 19 18 18 18 18 18 18 18 19 19 19 19 19 19 18 18 18 18 18 18 18 18 18 18 18 18 17 17 17 17 16 15 14 13 13 11 10 10 11 11 11

GFSMA_850_temp_165.txt.gz
Temp
19 19 19 19 19 19 19 20 20 20 20 21 21 21 21 21 21 21 21 21 20 20 20 19 19 18 18 17 17 17 17 17 17 17 17 17 17 17 17 17 17 17 17
19 19 19 20 19 20 20 20 20 20 21 21 21 21 21 21 21 21 21 21 20 20 20 19 19 18 18 18 17 17 17 18 18 18 17 17 17 17 17 18 18 17 17
19 19 19 19 20 20 20 20 20 21 21 21 22 21 21 22 21 21 21 21 21 21 20 19 19 19 19 18 18 18 18 18 17 17 17 18 18 17 17 17 17 18 18
19 19 19 19 20 20 20 20 21 21 21 22 22 22 22 22 22 22 22 21 21 20 20 20 20 20 19 19 19 19 18 18 18 18 18 18 18 17 17 18 18 18 18
19 19 19 20 20 20 20 20 20 20 21 22 22 22 22 22 22 22 21 21 21 21 21 20 21 20 20 20 20 19 19 19 18 18 18 18 18 17 17 18 18 18 18
19 19 19 20 20 20 20 20 20 20 21 21 21 22 22 21 21 22 21 21 21 21 21 21 21 21 20 20 20 20 19 19 18 18 18 18 18 17 17 18 18 18 18
19 19 19 19 19 20 20 20 20 20 21 21 21 21 22 22 21 22 21 22 21 21 21 21 21 21 20 20 19 19 19 19 19 18 18 18 18 18 18 18 17 18 18
19 19 19 19 19 19 19 20 20 20 20 20 20 21 21 22 21 21 21 21 21 21 21 21 22 21 21 20 20 20 19 19 19 18 18 18 18 18 18 18 18 18 18
19 19 19 19 19 19 19 19 19 20 19 20 20 20 20 21 20 21 21 21 21 21 22 22 21 21 21 20 20 20 19 19 18 18 18 18 17 17 17 17 17 17 17
19 19 19 19 19 19 19 19 19 19 20 19 19 20 20 20 20 21 21 21 21 21 22 22 22 21 21 20 20 20 20 19 19 18 18 18 17 17 17 17 17 17 17
19 19 19 19 19 19 19 19 19 19 19 19 19 19 19 19 20 19 21 21 21 21 21 21 22 22 21 20 20 20 20 19 19 18 18 18 17 17 17 17 17 17 17
19 19 19 19 19 19 19 19 19 19 19 19 19 19 18 18 19 19 19 20 20 20 21 21 21 21 21 20 20 20 19 19 19 18 18 18 18 18 17 17 17 17 17
19 19 19 19 19 19 19 19 19 18 18 18 18 18 18 19 18 18 18 19 19 20 20 21 21 21 21 20 20 19 19 19 19 18 18 18 18 17 17 17 17 17 17
19 20 20 19 19 19 19 19 19 18 18 18 18 18 18 17 18 18 18 18 19 20 19 20 21 21 20 20 20 20 20 19 19 18 18 18 17 17 17 17 16 16 16
19 20 20 19 19 19 19 19 18 18 19 19 19 18 18 17 18 18 18 17 18 19 20 20 20 20 20 20 20 20 19 19 19 18 18 17 17 17 17 16 16 16 16
19 19 19 19 19 19 19 19 19 19 19 19 19 19 18 18 18 18 18 18 17 18 19 19 19 19 19 19 19 19 19 19 19 18 18 17 17 17 17 16 16 16 16
19 19 19 19 19 19 19 19 19 19 19 19 19 19 19 19 18 18 18 18 18 18 18 19 18 19 19 19 19 19 19 19 18 18 18 18 17 16 16 16 16 16 15
19 19 19 19 19 19 19 19 19 19 19 19 19 18 18 18 18 18 18 18 18 18 17 17 18 18 18 19 18 19 18 18 18 18 17 16 16 16 16 16 16 15 15
20 20 19 19 19 19 19 19 19 19 19 19 19 19 19 19 18 18 18 18 18 18 18 17 18 17 18 18 18 18 18 18 18 17 16 16 16 16 16 16 16 15 15
19 20 20 19 19 19 19 19 19 19 18 18 19 19 19 19 19 18 18 18 18 18 18 17 17 17 17 17 18 18 18 18 17 17 16 15 16 15 15 15 15 14 14
19 19 19 19 19 19 19 18 18 18 18 18 18 18 19 19 19 19 18 18 18 18 18 17 17 16 17 17 18 18 18 17 16 16 15 15 15 15 15 15 14 13 14
20 19 19 19 19 19 18 18 18 18 18 17 18 19 18 19 19 19 19 19 19 18 18 17 17 17 17 17 18 18 17 16 16 15 15 15 15 14 15 14 13 13 14
20 20 19 19 19 19 19 19 18 18 18 17 18 18 18 18 19 19 19 19 19 19 18 18 17 18 17 17 18 17 18 18 17 15 15 14 14 14 13 13 13 13 13
20 19 19 19 19 18 19 19 18 18 18 18 18 18 18 18 18 18 18 18 19 19 19 18 18 19 18 18 18 17 17 17 16 15 15 15 14 13 12 12 12 12 12
19 19 19 19 19 18 18 19 19 19 18 18 18 18 18 19 19 18 17 18 18 18 18 19 18 18 18 18 18 17 17 17 16 15 15 14 14 12 11 11 11 10 10
19 19 19 18 18 19 19 18 18 17 17 17 17 18 19 19 19 18 17 17 18 18 18 19 19 18 18 18 18 17 17 17 16 15 14 13 13 12 9 9 8 9 9

GFSMA_850_temp_171.txt.gz
Temp
20 20 20 21 21 21 21 21 22 21 22 20 23 23 24 23 22 23 21 22 21 21 21 20 20 19 19 18 18 18 19 18 18 18 18 18 18 18 18 18 18 18 18
19 20 19 21 21 22 22 22 21 21 22 23 23 23 23 23 22 22 22 22 22 21 21 20 20 19 19 19 19 18 19 19 19 19 19 19 18 18 18 18 18 18 18
19 20 20 21 22 21 21 21 21 22 22 24 23 23 23 23 23 22 22 23 22 21 21 21 20 20 19 19 19 19 19 19 18 19 19 19 18 18 18 18 18 18 18
18 19 20 21 21 21 22 22 23 23 23 24 24 24 24 24 23 23 22 22 23 22 22 21 20 20 20 19 19 19 19 19 18 18 18 18 18 18 18 18 18 18 18
18 19 21 21 21 22 22 22 22 22 23 24 24 24 24 24 24 23 23 22 22 21 22 21 20 20 20 19 20 19 19 19 19 19 19 18 18 18 18 18 18 18 18
19 19 21 20 20 22 21 22 22 21 22 22 24 25 24 24 24 23 23 23 22 21 22 21 21 20 20 20 20 20 19 19 19 19 19 18 18 18 18 18 19 19 19
19 20 21 20 20 21 19 20 21 21 22 22 22 22 23 24 24 24 24 23 23 23 22 21 19 21 21 21 20 20 19 19 19 19 18 18 18 18 18 18 18 18 18
18 19 20 20 20 21 21 20 20 21 22 22 22 23 20 20 21 24 24 23 23 23 23 22 21 20 21 20 20 20 19 19 19 19 18 18 18 18 18 18 18 18 18
18 19 19 20 19 20 19 19 20 20 21 21 22 22 23 22 23 23 24 24 23 23 23 22 22 21 21 19 19 19 19 19 19 19 19 18 18 18 18 18 17 17 17
18 19 18 18 18 20 20 20 20 20 20 22 22 22 22 22 22 24 24 22 24 22 23 23 21 20 20 20 20 19 19 19 19 19 19 18 18 18 18 17 17 17 17
18 19 19 18 18 19 20 20 20 19 20 21 22 22 22 22 22 22 23 24 24 23 24 22 23 22 21 21 19 20 20 20 19 19 18 18 18 18 18 17 17 17 17
19 19 19 18 18 19 19 19 18 19 19 20 20 20 22 22 23 23 24 24 24 24 23 24 22 22 21 21 21 20 20 20 19 19 18 18 18 18 18 18 17 17 17
21 20 20 18 18 19 18 19 19 19 19 19 19 20 21 22 22 23 23 23 23 24 24 24 23 22 22 20 20 20 20 20 20 19 19 18 18 18 18 17 17 17 17
21 21 20 19 18 18 18 18 19 19 19 19 19 19 19 21 22 22 22 23 23 23 24 23 23 23 22 21 20 20 20 20 19 19 18 18 18 18 18 18 17 17 17
21 21 20 19 19 18 18 19 19 19 19 19 20 20 19 20 21 22 22 23 22 23 24 24 23 23 22 21 21 20 19 19 19 19 19 19 18 18 18 17 17 17 17
20 20 19 19 19 19 19 19 18 19 19 19 19 20 19 20 21 21 21 22 22 22 21 22 22 21 21 21 20 19 19 19 19 19 19 18 18 17 17 17 17 17 16
19 19 19 19 19 19 19 19 19 19 19 19 18 19 19 19 19 20 21 21 21 21 21 21 22 21 21 19 20 19 19 19 19 19 19 18 18 18 17 17 16 16 16
19 19 19 18 18 19 19 19 18 19 19 19 19 19 18 19 18 19 19 20 20 20 20 21 21 21 20 20 19 19 18 18 17 19 18 18 18 18 17 17 16 16 16
18 18 18 19 18 18 18 19 19 18 18 19 19 19 18 18 19 18 19 19 20 20 20 20 20 20 20 20 20 19 18 18 18 19 18 17 17 17 17 17 16 16 15
18 18 18 18 18 18 18 18 18 18 19 18 18 18 18 18 18 18 18 19 19 19 20 19 20 21 21 21 20 19 19 18 18 17 18 17 17 16 16 16 16 15 15
19 19 18 18 18 18 19 19 19 19 18 18 18 18 18 18 18 18 18 18 18 18 18 20 20 21 21 21 19 18 18 18 18 16 17 17 16 16 16 15 15 15 14
18 19 18 18 18 19 20 20 20 18 18 18 18 18 18 18 18 18 18 18 18 18 18 19 20 21 22 21 20 19 18 17 17 16 16 15 15 16 16 15 15 14 14
19 20 19 19 19 18 21 20 20 19 18 18 17 17 17 18 18 18 18 18 18 18 18 18 19 20 20 20 20 19 18 19 19 17 16 15 15 14 13 13 13 12 12
19 19 19 20 19 20 20 20 20 19 19 19 19 19 19 19 20 18 17 17 17 17 18 18 18 19 19 19 19 18 18 18 17 16 16 15 14 13 12 11 11 10 10
19 19 20 20 20 19 20 20 19 19 19 19 19 19 19 18 20 19 16 15 16 17 17 17 17 18 18 18 18 18 17 17 17 16 16 16 15 13 12 11 11 10 9
17 18 19 19 19 19 19 19 19 19 18 17 18 16 15 14 15 17 15 14 15 16 16 17 17 18 18 18 18 17 17 16 16 16 16 15 14 13 9 8 8 8 7

GFSMA_850_temp_174.txt.gz
Temp
20 21 20 21 20 21 21 21 20 21 22 22 23 23 23 23 23 23 22 21 21 21 21 20 20 19 19 18 18 17 17 17 18 18 18 18 17 17 17 17 17 17 17
20 20 20 21 21 21 21 22 22 23 22 22 23 23 24 23 23 22 22 21 21 22 21 21 21 20 19 19 19 18 18 18 17 17 18 18 18 17 17 17 17 18 18
20 20 21 21 21 21 22 22 22 22 23 23 23 24 23 24 23 23 22 21 22 22 22 21 21 20 20 20 19 19 19 19 18 18 18 18 18 18 18 18 18 18 18
20 20 20 21 21 22 22 22 22 23 23 23 23 24 24 23 24 24 23 22 22 21 21 20 21 21 20 20 20 19 19 19 19 19 18 18 18 18 18 19 18 18 18
20 20 20 21 21 22 21 21 22 22 22 23 22 23 22 23 24 24 23 22 22 22 21 21 21 21 20 20 20 20 19 19 19 19 19 19 19 19 19 18 18 18 18
19 20 19 20 21 21 21 22 21 22 22 23 23 23 22 24 24 23 23 23 22 21 22 21 21 21 20 21 20 20 20 19 19 19 19 19 19 18 18 19 18 18 18
19 20 20 20 22 21 21 21 21 21 21 22 22 22 23 22 23 23 23 23 23 22 19 20 22 21 21 21 20 20 20 19 19 19 19 19 19 19 18 18 18 18 18
19 20 20 20 21 21 20 20 20 20 19 22 22 22 22 22 23 23 24 23 23 24 22 20 21 21 20 21 20 20 20 19 19 19 18 18 18 18 18 18 18 18 18
19 19 19 20 19 20 20 20 20 20 21 21 22 22 21 20 22 23 23 23 23 21 20 20 19 17 19 20 20 20 20 20 19 19 18 18 18 18 18 18 18 18 18
18 19 19 20 19 18 20 21 20 20 21 21 21 22 22 22 22 22 23 23 24 23 22 21 20 18 21 20 20 20 19 19 19 19 18 18 18 18 18 18 18 18 18
19 19 19 19 19 20 19 19 20 19 20 20 20 21 22 22 22 22 22 23 24 24 23 23 22 22 21 19 21 21 19 20 20 19 18 18 18 18 18 18 18 18 18
20 20 19 19 19 19 20 19 19 20 20 20 20 21 21 22 22 22 22 23 23 24 24 24 23 22 20 19 21 20 20 20 20 19 19 19 18 18 18 18 18 18 17
20 20 20 20 21 20 20 19 19 19 19 19 19 20 21 21 21 22 22 23 23 23 23 24 23 22 21 21 21 21 20 20 20 19 19 19 18 18 18 18 18 17 17
20 20 20 20 20 20 20 19 19 19 20 19 19 20 19 20 21 21 22 22 23 23 23 23 24 23 22 21 21 21 21 20 20 19 19 19 18 18 18 18 18 17 17
21 20 20 20 19 20 20 19 19 19 19 19 19 19 19 20 21 21 21 22 22 22 22 23 22 21 20 21 21 21 21 20 20 20 19 19 18 18 18 18 17 17 17
20 20 19 19 19 19 20 19 19 19 19 19 19 19 19 19 20 20 20 20 22 21 21 22 22 21 21 21 19 19 20 20 20 20 19 19 19 18 18 17 17 17 17
20 20 20 19 19 20 19 19 19 19 19 19 19 19 20 20 20 20 21 20 20 21 20 21 21 21 21 21 20 19 20 19 19 19 19 19 18 18 17 17 17 17 16
19 20 20 20 19 19 19 19 19 19 18 18 19 19 19 19 19 19 20 20 20 20 20 20 21 21 21 21 20 20 20 20 20 19 19 19 18 18 17 17 17 16 16
20 20 19 19 20 20 20 19 19 19 19 19 19 18 18 18 19 19 19 19 19 19 19 19 20 20 20 20 20 20 19 19 20 20 19 18 18 17 17 16 16 16 15
20 20 20 19 19 19 19 19 19 19 19 19 19 19 19 19 19 19 18 19 19 19 19 19 19 20 20 21 20 20 19 19 20 19 18 18 17 17 16 16 16 15 15
19 19 20 19 19 19 19 19 19 19 19 19 19 19 19 19 19 18 18 18 18 19 19 19 19 19 19 20 21 20 19 19 19 19 19 18 18 17 16 15 15 15 15
20 19 20 19 19 19 19 19 19 19 19 19 19 19 19 18 19 19 19 18 18 18 18 18 18 18 19 19 20 19 18 19 20 19 18 17 17 16 15 15 15 14 14
20 20 19 19 20 19 20 19 20 20 20 19 19 19 19 19 18 18 17 17 17 17 17 17 17 18 19 20 19 18 17 18 19 20 19 15 15 14 15 14 15 13 13
20 19 19 19 20 19 20 20 20 20 20 19 19 18 18 19 19 19 18 18 18 17 17 17 17 18 18 19 19 18 18 17 18 17 16 15 15 14 14 14 12 12 11
19 19 19 19 19 20 20 20 20 20 19 20 19 19 18 17 17 17 15 16 17 19 19 17 17 17 17 18 18 18 17 17 17 16 16 16 15 14 13 12 11 10 10
19 19 20 21 20 19 20 19 20 20 19 19 18 17 15 15 14 13 13 13 14 17 16 17 17 17 16 17 18 18 17 17 16 16 15 15 14 14 11 9 9 10 10